Regional Weather Roundup
Issued by NWS

Home | Current Version | Previous Version | Graphics & Text | Print | Product List | Glossary On
Versions: 1 2 3 4 5 6 7 8 9 10 11 12 13 14 15 16 17 18 19 20 21 22 23 24 25 26 27 28 29 30 31 32 33 34 35 36 37 38 39 40 41 42 43 44 45 46 47 48 49 50
000
ASUS43 KOAX 281102
RWRNE

WEATHER ROUNDUP FOR NEBRASKA
NATIONAL WEATHER SERVICE OMAHA NE
600 AM CDT TUE JUL 28 2015

NOTES: SATELLITE DATA IS BEING USED TO AUGMENT CLOUD COVER ABOVE
       12000 FEET.
       "FAIR" INDICATES FEW OR NO CLOUDS BELOW 12,000 FEET WITH NO
       SIGNIFICANT WEATHER AND/OR OBSTRUCTIONS TO VISIBILITY.

  * THESE STATIONS DO NOT REPORT WEATHER SUCH AS RAIN...SNOW OR FOG.

NEZ001>004-019>022-054>056-281200-
NEBRASKA PANHANDLE

CITY           SKY/WX    TMP DP  RH WIND       PRES   REMARKS
SCOTTSBLUFF    CLEAR     55  48  77 NW8       30.03R
ALLIANCE       CLEAR     53  46  77 W10       30.00R
CHADRON        CLEAR     56  47  71 W15       29.99R
KIMBALL        CLEAR     53  48  84 N6        30.06R
SIDNEY         CLEAR     56  48  74 NW14      30.03R
$$

NEZ057>060-069>072-079>082-281200-
SOUTHWEST NEBRASKA

CITY           SKY/WX    TMP DP  RH WIND       PRES   REMARKS
NORTH PLATTE   CLEAR     73  59  61 N14       29.83R
IMPERIAL       CLEAR     69  48  47 N20G26    29.90R
MCCOOK         CLEAR     73  67  81 SW6       29.78R
$$

NEZ005>010-023>029-035>040-094-281200-
NORTH CENTRAL NEBRASKA

CITY           SKY/WX    TMP DP  RH WIND       PRES   REMARKS
VALENTINE      CLEAR     61  52  72 NW13G20   29.88R
AINSWORTH      CLEAR     65  57  74 NW17      29.85R
BROKEN BOW     CLEAR     72  69  90 CALM      29.78R
O`NEILL        MOCLDY    68  67  98 W13G22    29.76R
ORD            PTCLDY    73  68  84 S3        29.74S
$$

NEZ041-046>049-061>064-073>077-083>087-281200-
SOUTH CENTRAL NEBRASKA

CITY           SKY/WX    TMP DP  RH WIND       PRES   REMARKS
GRAND ISLAND   PTCLDY    76  70  82 S10       29.76R THUNDER
AURORA         PTCLDY    76  70  80 SW8       29.77R
HASTINGS       PTCLDY    78  69  73 S10G17    29.75S
KEARNEY *      CLOUDY    81  68  65 SW9       29.77R
$$

NEZ011>018-030>034-042>045-281200-
NORTHEAST NEBRASKA

CITY           SKY/WX    TMP DP  RH WIND       PRES   REMARKS
NORFOLK        MOCLDY    75  71  87 SE10      29.75F
ALBION         PTCLDY    73  67  84 CALM      29.76F
BLAIR          PTCLDY    76  70  82 E7        29.78S
COLUMBUS *     MOCLDY    81  68  65 S7        29.77R
FREMONT        MOCLDY    78  72  81 SE6       29.76F
TEKAMAH        TSTM      77  70  79 S16G38    29.72F
$$

NEZ050>053-065>068-078-088>093-281200-
SOUTHEAST NEBRASKA

CITY           SKY/WX    TMP DP  RH WIND       PRES   REMARKS
LINCOLN        LGT RAIN  80  71  74 S7        29.77S
OMAHA EPPLEY   MOCLDY    79  73  82 S15       29.77R
BEATRICE       PTCLDY    79  71  75 S14G20    29.77F
FALLS CITY     CLEAR     75  73  93 SE9       29.81F
NEBRASKA CITY  CLEAR     75  74  97 S10       29.80S
$$

NEZ044-045-051>053-067-281200-
OMAHA AREA

CITY           SKY/WX    TMP DP  RH WIND       PRES   REMARKS
OMAHA EPPLEY   MOCLDY    79  73  82 S15       29.77R
BLAIR          PTCLDY    76  70  82 E7        29.78S
FREMONT        MOCLDY    78  72  81 SE6       29.76F
OFFUTT AFB     PTCLDY    75  73  92 SE10      29.77S
WAHOO          LGT RAIN  77  72  84 SW6       29.77R
$$


USA.gov is the U.S. government's official web portal to all federal, state and local government web resources and services.